LogoCoinalyze
    Ad-Free Version Home Markten Financieringspercentages
    Futures data
    • Aggregated data (Munten)
    • Individuele grafieken
    • Globale grafieken
    Meldingen
    TA
    Bitcoin Ethereum BNB Ripple Tron ZCash Dogecoin Monero UNUS SED LEO Chainlink Cardano Stellar Lumens Bitcoin Cash Litecoin Hedera Cronos Polkadot Ethereum Classic Algorand Quant Cosmos VeChain Dash Bitcoin SV BitTorrent Terra Decred Tezos Iota The Graph THETA MultiversX Decentraland NEO Chiliz Golem Horizen Basic Attention Token Qtum 0x DigiByte Beam RIF Token FTX Token Holo FUNToken aelf Ontology Zilliqa Nano Enjin Coin Ravencoin Mask Network Verge Siacoin Status WINk Waves IoTeX iExec RLC Power Ledger Steem Kyber Network Crystal Lisk Ark Ardor WOO Network IOST WAX Icon Storj Loopring Wanchain Bitcoin Diamond Augur AdEx Bitcoin Gold OmiseGO NEM MonaCoin BitShares Ren Komodo V Systems Nuls Mithril SOLVE EOS Maker Aion Nebulas HedgeTrade Bread Fetch.ai TomoChain Polygon Fantom Waltonchain GXChain Bytom Metaverse ETP MaidSafeCoin QASH
    Rangschikken op:
    Meer
    • API
    • Candlestick-patronen
    • Doneer
    • Contact
    • Sitemap
    • Privacy Policy
    • Disclaimer
    • Theme:
    Nederlands
    • English
    • Français
    • Русский
    • Deutsch
    • Türkçe
    • Português (BR)
    • Español
    • 한국어
    • 简体中文
    • 日本語
     
    Aanmelden / Registreren
    Markets/ Pepe/ PEPE naar FDUSD/ PEPEFDUSD Binance
    Trades
    WL
    Chat
    Stats
    Nieuws
    ⦷
    AAA
    0.00000352 2491000.00000000 14:18:31
    0.00000352 40240216.00000000 14:17:18
    0.00000351 1681847.00000000 14:16:03
    0.00000351 12094442.00000000 14:13:31
    0.00000350 10253700.00000000 14:02:45
    0.00000350 25.00000000 13:57:26
    0.00000350 984700.00000000 13:57:23
    0.00000350 48.00000000 13:56:03
    0.00000350 9602200.00000000 13:56:02
    0.00000351 5454885.00000000 13:50:35
    0.00000350 25.00000000 13:49:12
    0.00000350 984700.00000000 13:49:11
    0.00000350 10911193.00000000 13:48:16
    0.00000351 86.00000000 13:41:21
    0.00000351 3480400.00000000 13:39:52
    0.00000351 7424335.00000000 13:39:45
    0.00000350 233275349.00000000 13:20:23
    0.00000350 984725.00000000 13:16:45
    0.00000350 19336225.00000000 13:11:25
    0.00000350 177255200.00000000 13:08:37
    0.00000350 984725.00000000 13:08:36
    0.00000350 25.00000000 13:03:44
    0.00000350 984700.00000000 13:03:44
    0.00000350 60.00000000 13:02:00
    0.00000350 23478200.00000000 13:02:00
    0.00000350 25.00000000 13:01:53
    0.00000350 984700.00000000 13:01:46
    0.00000350 4857143.00000000 13:00:25
    0.00000350 11893113.00000000 13:00:25
    0.00000351 23411300.00000000 12:59:39
    0.00000351 86.00000000 12:59:35
    0.00000351 3480400.00000000 12:59:35
    0.00000351 981920.00000000 12:56:48
    0.00000350 439656.00000000 12:56:21
    0.00000350 2506003.00000000 12:56:17
    0.00000351 284901.00000000 12:56:15
    0.00000351 284901.00000000 12:56:15
    0.00000351 284901.00000000 12:56:15
    0.00000351 284901.00000000 12:56:15
    0.00000351 284901.00000000 12:56:15
    0.00000351 101772955.00000000 12:56:15
    0.00000350 10666221.00000000 12:53:32
    0.00000349 987547.00000000 12:46:59
    0.00000349 21.00000000 12:43:19
    0.00000349 12851500.00000000 12:43:12
    0.00000349 440923.00000000 12:42:49
    0.00000349 2843185.00000000 12:42:46
    0.00000350 984725.00000000 12:33:34
    0.00000350 984725.00000000 12:32:08
    0.00000350 78006571.00000000 12:32:05
    0.00000349 77489400.00000000 12:30:49
    0.00000349 18351500.00000000 12:30:05
    0.00000349 78319011.00000000 12:30:05
    0.00000348 233494834.00000000 12:30:01
    0.00000347 443479.00000000 12:24:27
    0.00000348 4885058.00000000 12:24:25
    0.00000348 34977902.00000000 12:24:25
    0.00000349 4.00000000 12:12:41
    0.00000349 3501100.00000000 12:12:41
    0.00000349 9171700.00000000 12:12:32
    0.00000349 40270.00000000 12:10:39
    0.00000349 23495702.00000000 12:10:39
    0.00000349 12000000.00000000 12:10:39
    0.00000349 11714285.00000000 12:10:39
    0.00000348 84.00000000 11:31:59
    0.00000348 2521000.00000000 11:31:44
    0.00000348 23613193.00000000 11:31:17
    0.00000348 2528656.00000000 11:30:10
    0.00000348 72.00000000 11:30:07
    0.00000348 80357200.00000000 11:30:07
    0.00000348 127812000.00000000 11:30:07
    0.00000347 2881844.00000000 11:21:44
    0.00000347 2536274.00000000 11:15:46
    0.00000347 55215678.00000000 11:15:43
    0.00000346 13.00000000 10:52:37
    0.00000346 4317700.00000000 10:52:37
    0.00000346 5681739.00000000 10:52:37
    0.00000345 86808488.00000000 10:34:56
    0.00000346 36.00000000 10:25:15
    0.00000346 588200.00000000 10:25:15
    0.00000346 588200.00000000 10:09:59
    0.00000346 588200.00000000 10:06:32
    0.00000346 588200.00000000 10:05:29
    0.00000346 2536274.00000000 09:49:26
    0.00000345 448681.00000000 09:49:24
    0.00000345 450000.00000000 09:49:24
    0.00000346 2528656.00000000 09:49:22
    0.00000346 42316538.00000000 09:49:21
    0.00000347 3825706.00000000 09:43:29
    0.00000347 16.00000000 09:23:55
    0.00000347 10507600.00000000 09:21:40
    0.00000348 5648991.00000000 09:16:22
    0.00000348 8191037.00000000 09:12:35
    0.00000348 5648991.00000000 09:12:35
    0.00000348 2521100.00000000 09:11:59
    0.00000348 3063600.00000000 09:11:58
    0.00000347 7920307.00000000 09:03:11
    0.00000347 500000.00000000 08:44:27
    0.00000347 421053.00000000 08:23:14
    0.00000347 418186.00000000 08:23:14
    Afmelden
    AAA
    Help
    🙂 🤣 😎 🤗 😛 😉 😜 🤑 🤔 😑 😴 😕 🙃 😲 😇 🙁 😢 😬 😟 😠 🕺 🏃 💪 ✌ 👌 👍 👎 👏 👋 🤝 🍺 🍻 🐋 🐟 🦈 🗽 🚄 ✈ 🛑 🚀 🏦 🌚 ⭐ 🌞 ⚡ 🏆 💰 💲 🔨 ❓ ❗ 💯 🔶 🏁
    ☺
    Aanmelden of Registreren en chat
    24 Uur
    Verandering
    +2.92%
    Volume
    26,270,157,419
    Hoog
    0.00000352
    Laag
    0.00000337
    7 Dagen
    Verandering
    -8.81%
    Volume
    219,040,755,822
    Hoog
    0.00000401
    Laag
    0.00000337
    30 Dagen
    Verandering
    +20.96%
    Volume
    1,405,445,490,285
    Hoog
    0.00000456
    Laag
    0.00000254
    DOGE, SHIB, PEPE, or Something Else: Which Meme Coin Can Make History in September? (3 AIs Weigh In)
    "DOGE remains the most likely to record the largest move in dollar terms and lead the entire sector," ChatGPT stated.
    cryptopotato.com
    Sept 3, 2026 00:41
    Pepe price rallies 25% as whale demand and futures interest surge
    Key takeaways Pepe has gained 25% this week, including a combined 22% advance over the previous two days. Seven whale transactions worth more than $1 million each occurred Thursday, the highest...
    coinjournal.net
    Aug 21, 2026 08:41
    PEPE Supply on Exchanges Just Took a Massive Hit – What’s Next?
    A drop in PEPE exchange balances has added to bullish expectations despite muted trader interest.
    cryptopotato.com
    Aug 6, 2026 20:02
    PEPE Exchange Outflows Hit Nearly 2-Year High as Whales Accumulate
    Pepe (PEPE) recorded its largest single-day exchange outflow since November 2024, with 4.54 trillion tokens leaving trading platforms, signaling that holders are moving supply away from immediate...
    beincrypto.com
    Aug 6, 2026 04:57
    Meme Coin Based on White House Shooter Conspiracy Rallies 320%
    $HENRY surged 300% after a 2023 Pepe tweet appeared to name the White House shooter, fueling a viral time-travel meme. The post Meme Coin Based on White House Shooter Conspiracy Rallies 320%...
    beincrypto.com
    Apr 27, 2026 16:11
    PEPE surges 4% as market sentiment improves, eyes Key resistance breakout
    Key takeaways Pepe extends gains on Wednesday, stretching its rally from the 50-day EMA. Derivatives data show heightened retail activity as risk-on sentiment returns to the market. Pepe (PEPE) is...
    coinjournal.net
    Apr 22, 2026 11:44
    Why The PEPE Price Could Stage A 55X Rally To Reach New $0.0001 ATH
    The PEPE price has now started to edge back into bullish conversations after the recent inflows into the crypto market. The last time PEPE’s weekly chart printed the kind of structure now...
    newsbtc.com
    Apr 21, 2026 15:30
    Pepe (PEPE) surges 9%, drawing interest from whales
    Key takeaways PEPE is up 9% in the last 24 hours, making it one of the best performers among the top 50 cryptocurrencies by market cap. The rally comes amid renewed interest from whales and retail...
    coinjournal.net
    Apr 16, 2026 07:40
    Murad Says SPX6900 (SPX) Is Primed for a Rally — Is He Right This Time?
    Crypto influencer Murad Mahmudov claims SPX6900 (SPX) is stabilizing at the same market cap level where Dogecoin (DOGE) and Pepe (PEPE) consolidated before their explosive rallies. The...
    beincrypto.com
    Apr 5, 2026 21:36
    The Shiba Inu Of This Cycle: Analyst Shares Why It Is Better To Buy PEPE Now
    In the bull market cycle of 2021-2022, the Shiba Inu meme coin made waves in a way that changed the face of meme coins forever. This came after Dogecoin’s initial 36,000% rally, and Shiba Inu...
    newsbtc.com
    Apr 4, 2026 07:30
    PEPE Explodes by 18% Amid Altcoin Rally, BTC Tapped $74K: Market Watch
    The frog-themed meme coin is today's biggest gainer, followed by TAO, DOT, and BONK.
    cryptopotato.com
    Mar 16, 2026 10:56
    Should PEPE traders brace for volatility as short squeeze potential builds?
    The memecoin market has seen its collective market capitalization drop by 48% over the past year, and 6.9% over the past month, according to CoinMarketCap. According to Glassnode, the memecoin...
    ambcrypto.com
    Mar 7, 2026 18:00
    Typ de opdracht simpelweg in de chat. Vervang nick1 door de echte nick
    • /ignore nick1 Negeer een chatgebruiker
    • /unignore nick1 Een chatgebruiker niet meer negeren
    • /ignorelist Toon chatgebruikers die je negeert